GW0914 Weather Reports


Display with metric or nautical units.
time (UTC)temp
F
wind
direction
speed
MPH
gust
MPH
rain 1hr
in
rain 24hr
in
rain mn
in
humidity
%
barometer
mb
20260502220843 44 4 3.0 3.0 0.00 0.00 0.00 67 1013.6
20260502220339 44 295 1.0 2.0 0.00 0.00 0.00 66 1013.6
20260502215835 44 276 1.0 1.0 0.00 0.00 0.00 66 1013.7
20260502215333 44 283 3.0 5.0 0.00 0.00 0.00 66 1013.3
20260502214829 44 270 1.0 1.0 0.00 0.00 0.00 69 1013.5
20260502214326 44 269 1.0 2.0 0.00 0.00 0.00 67 1013.6
20260502213824 44 311 1.0 2.0 0.00 0.00 0.00 71 1013.8
20260502213321 44 306 1.0 2.0 0.00 0.00 0.00 70 1013.5
20260502212820 44 318 3.0 3.0 0.00 0.00 0.00 69 1013.5
20260502212317 45 317 2.0 3.0 0.00 0.00 0.00 69 1013.3
20260502211815 44 308 3.0 3.0 0.00 0.00 0.00 72 1013.2
20260502211310 44 358 1.0 2.0 0.00 0.00 0.00 71 1013.2
20260502210808 45 318 1.0 1.0 0.00 0.00 0.00 70 1013.2
20260502210305 44 302 2.0 2.0 0.00 0.00 0.00 69 1013.2
20260502205802 44 303 4.0 5.0 0.00 0.00 0.00 65 1013.1
20260502205258 44 265 3.0 3.0 0.00 0.00 0.00 67 1013.0
20260502204755 44 321 2.0 2.0 0.00 0.00 0.00 67 1013.2
20260502204252 44 292 2.0 2.0 0.00 0.00 0.00 67 1013.1
20260502203749 45 303 5.0 6.0 0.00 0.00 0.00 65 1013.2
20260502203247 45 280 1.0 2.0 0.00 0.00 0.00 65 1013.2
20260502202742 45 310 3.0 3.0 0.00 0.00 0.00 63 1013.3
20260502202240 44 276 3.0 5.0 0.00 0.00 0.00 67 1013.2
20260502201738 44 276 3.0 3.0 0.00 0.00 0.00 66 1013.3
20260502201233 45 325 3.0 3.0 0.00 0.00 0.00 65 1013.2
20260502200730 45 304 3.0 3.0 0.00 0.00 0.00 69 1013.1
20260502200226 45 287 1.0 2.0 0.00 0.00 0.00 65 1013.5
20260502195725 46 317 5.0 6.0 0.00 0.00 0.00 65 1013.5
20260502195221 45 262 1.0 2.0 0.00 0.00 0.00 66 1013.3
20260502194717 46 312 3.0 3.0 0.00 0.00 0.00 66 1013.6
20260502194215 45 337 4.0 6.0 0.00 0.00 0.00 66 1013.5
20260502193710 46 323 4.0 5.0 0.00 0.00 0.00 67 1013.6
20260502193208 48 286 3.0 5.0 0.00 0.00 0.00 67 1013.5
20260502192703 45 297 3.0 3.0 0.00 0.00 0.00 68 1013.3
20260502192201 45 261 1.0 2.0 0.00 0.00 0.00 69 1013.3
20260502191657 45 279 2.0 3.0 0.00 0.00 0.00 71 1013.7
20260502191155 45 42 3.0 6.0 0.00 0.00 0.00 68 1013.6
20260502190652 45 309 2.0 2.0 0.00 0.00 0.00 69 1013.6
20260502190150 45 305 1.0 2.0 0.00 0.00 0.00 69 1013.7
20260502185644 44 319 2.0 2.0 0.00 0.00 0.00 71 1013.7
20260502185141 44 291 1.0 2.0 0.00 0.00 0.00 75 1013.8
20260502184637 44 280 1.0 1.0 0.00 0.00 0.00 73 1013.8
20260502184133 44 33 2.0 3.0 0.00 0.00 0.00 71 1013.8
20260502183630 44 289 2.0 2.0 0.00 0.00 0.00 65 1013.7
20260502183126 44 321 4.0 5.0 0.00 0.00 0.00 66 1013.7
20260502182621 43 298 3.0 3.0 0.00 0.00 0.00 66 1013.7
20260502182117 43 284 4.0 5.0 0.00 0.00 0.00 65 1013.8
20260502181615 43 323 3.0 3.0 0.00 0.00 0.00 68 1013.7
20260502181113 45 298 5.0 6.0 0.00 0.00 0.00 68 1013.8
20260502180610 47 270 1.0 1.0 0.00 0.00 0.00 63 1013.6
20260502180108 47 252 1.0 1.0 0.00 0.00 0.00 62 1013.7
20260502164013 44 306 2.0 2.0 0.00 0.00 0.00 67 1014.0
20260502163509 44 253 4.0 7.0 0.00 0.00 0.00 64 1014.0
20260502163006 44 275 3.0 3.0 0.00 0.00 0.00 66 1014.1
20260502162503 44 297 3.0 5.0 0.00 0.00 0.00 68 1014.0
20260502162000 43 302 2.0 2.0 0.00 0.00 0.00 71 1014.2
20260502161456 43 299 4.0 5.0 0.00 0.00 0.00 66 1014.1
20260502160955 44 325 4.0 5.0 0.00 0.00 0.00 70 1014.1
20260502160452 45 312 1.0 2.0 0.00 0.00 0.00 66 1014.1
20260502151941 44 294 3.0 3.0 0.00 0.00 0.00 72 1014.1
20260502151438 43 298 2.0 2.0 0.00 0.00 0.00 76 1014.1
20260502150935 44 298 6.0 8.0 0.00 0.00 0.00 72 1014.2
20260502150432 43 305 5.0 5.0 0.00 0.00 0.00 74 1014.1
20260502130318 38 279 3.0 3.0 0.00 0.00 0.00 83 1013.7
20260502123803 36 276 2.0 2.0 0.00 0.00 0.00 83 1013.5
20260502123300 36 294 4.0 5.0 0.00 0.00 0.00 84 1013.6
20260502122757 36 289 2.0 2.0 0.00 0.00 0.00 84 1013.5
20260502122253 36 333 2.0 3.0 0.00 0.00 0.00 85 1013.2
20260502121751 36 309 3.0 3.0 0.00 0.00 0.00 84 1013.2
20260502121249 36 313 3.0 3.0 0.00 0.00 0.00 84 1013.5
20260502120745 36 287 2.0 2.0 0.00 0.00 0.00 85 1013.2
20260502120242 35 313 2.0 2.0 0.00 0.00 0.00 83 1013.3
20260502115740 35 322 3.0 3.0 0.00 0.00 0.00 83 1013.2
20260502115237 35 331 2.0 2.0 0.00 0.00 0.00 84 1013.5
20260502114732 35 272 3.0 3.0 0.00 0.00 0.00 84 1013.3
20260502114230 35 302 3.0 3.0 0.00 0.00 0.00 84 1013.2
20260502113727 35 280 1.0 2.0 0.00 0.00 0.00 85 1013.3
20260502113224 35 265 3.0 3.0 0.00 0.00 0.00 85 1013.5
20260502112722 35 254 1.0 1.0 0.00 0.00 0.00 86 1013.2
20260502112220 34 280 1.0 2.0 0.00 0.00 0.00 87 1013.3
20260502111717 34 303 2.0 2.0 0.00 0.00 0.00 89 1013.5
20260502111214 34 255 0.0 0.0 0.00 0.00 0.00 89 1013.2
20260502110712 34 281 1.0 1.0 0.00 0.00 0.00 90 1013.2
20260502110209 34 252 1.0 1.0 0.00 0.00 0.00 90 1013.3
20260502105707 33 252 1.0 1.0 0.00 0.00 0.00 90 1013.1
20260502105203 33 256 0.0 1.0 0.00 0.00 0.00 90 1013.2
20260502104701 34 259 1.0 1.0 0.00 0.00 0.00 89 1013.1
20260502104158 34 251 0.0 0.0 0.00 0.00 0.00 89 1012.9
20260502103655 34 255 0.0 0.0 0.00 0.00 0.00 89 1013.2
20260502103153 34 259 1.0 1.0 0.00 0.00 0.00 88 1013.3
20260502102650 34 258 1.0 1.0 0.00 0.00 0.00 88 1013.0
20260502102147 34 257 1.0 1.0 0.00 0.00 0.00 88 1013.0
20260502101645 34 261 1.0 1.0 0.00 0.00 0.00 88 1013.2
20260502101143 34 271 2.0 2.0 0.00 0.00 0.00 88 1012.9
20260502100641 34 258 1.0 1.0 0.00 0.00 0.00 89 1013.2
20260502100139 34 265 1.0 1.0 0.00 0.00 0.00 88 1013.1
20260502091113 35 247 0.0 1.0 0.00 0.00 0.00 88 1013.0
20260502090610 35 249 0.0 0.0 0.00 0.00 0.00 87 1013.0
20260502090107 35 258 3.0 3.0 0.00 0.00 0.00 88 1012.9
20260502071504 37 252 0.0 1.0 0.00 0.00 0.00 88 1012.8
20260502071003 38 251 0.0 0.0 0.00 0.00 0.00 88 1012.9
20260502070500 38 272 2.0 2.0 0.00 0.00 0.00 88 1013.1
20260502065958 38 257 1.0 1.0 0.00 0.00 0.00 88 1012.9
20260502065456 38 262 2.0 2.0 0.00 0.00 0.00 88 1013.2
20260502064954 38 260 3.0 3.0 0.00 0.00 0.00 89 1013.2
20260502064452 38 261 2.0 3.0 0.00 0.00 0.00 92 1013.2
20260502063949 37 256 2.0 2.0 0.00 0.00 0.00 97 1013.1
20260502063447 37 269 2.0 2.0 0.00 0.00 0.00 99 1013.0
20260502062944 37 252 1.0 2.0 0.00 0.00 0.00 99 1013.0
20260502062441 37 222 1.0 2.0 0.00 0.00 0.00 99 1013.0
20260502061940 37 249 1.0 1.0 0.00 0.00 0.00 99 1013.1
20260502061437 37 270 1.0 1.0 0.00 0.00 0.00 99 1013.2
20260502060933 37 256 1.0 1.0 0.00 0.00 0.00 99 1013.3
20260502060428 37 242 1.0 1.0 0.00 0.00 0.00 99 1013.1
20260502055925 37 253 0.0 1.0 0.00 0.00 0.00 99 1013.2
20260502055424 37 248 0.0 1.0 0.00 0.00 0.00 99 1013.3
20260502054923 38 241 0.0 0.0 0.00 0.00 0.00 99 1013.2
20260502054420 38 228 0.0 0.0 0.00 0.00 0.00 99 1013.3
20260502053918 38 232 1.0 1.0 0.00 0.00 0.00 99 1013.3
20260502053415 38 252 1.0 1.0 0.00 0.00 0.00 99 1013.5
20260502052912 38 245 0.0 0.0 0.00 0.00 0.00 99 1013.6
20260502052411 38 242 0.0 0.0 0.00 0.00 0.00 99 1013.5
20260502051908 38 243 0.0 0.0 0.00 0.00 0.00 99 1013.3
20260502051406 38 242 0.0 0.0 0.00 0.00 0.00 99 1013.3
20260502050903 38 243 0.0 0.0 0.00 0.00 0.00 99 1013.5
20260502050359 38 239 0.0 0.0 0.00 0.00 0.00 99 1013.3
20260502045856 38 239 0.0 0.0 0.00 0.00 0.00 99 1013.3
20260502045353 38 238 0.0 0.0 0.00 0.00 0.00 99 1013.2
20260502044850 37 240 0.0 0.0 0.00 0.00 0.00 99 1013.5
20260502044346 37 236 0.0 0.0 0.00 0.00 0.00 99 1013.5
20260502043843 37 237 0.0 0.0 0.00 0.00 0.00 99 1013.5
20260502043341 37 255 0.0 0.0 0.00 0.00 0.00 99 1013.5
20260502042840 37 248 0.0 0.0 0.00 0.00 0.00 99 1013.2
20260502042338 37 253 0.0 0.0 0.00 0.00 0.00 99 1013.3
20260502041835 36 239 0.0 0.0 0.00 0.00 0.00 99 1013.2
20260502041332 36 239 0.0 0.0 0.00 0.00 0.00 99 1013.3
20260502040829 37 238 0.0 0.0 0.00 0.00 0.00 99 1013.0
20260502040326 36 237 0.0 0.0 0.00 0.00 0.00 99 1013.2
20260502035822 36 240 0.0 0.0 0.00 0.13 0.13 99 1013.1
20260502035319 37 241 0.0 0.0 0.00 0.13 0.13 99 1013.3
20260502034816 37 237 0.0 0.0 0.00 0.13 0.13 99 1013.2
20260502034315 37 237 0.0 0.0 0.00 0.13 0.13 99 1013.2
20260502033813 37 236 0.0 0.0 0.00 0.13 0.13 99 1013.2
20260502033310 37 234 0.0 0.0 0.00 0.13 0.13 99 1013.1
20260502032807 37 234 0.0 0.0 0.00 0.13 0.13 99 1013.3
20260502032305 37 234 0.0 0.0 0.00 0.13 0.13 99 1013.6
20260502031800 38 234 0.0 0.0 0.00 0.13 0.13 99 1013.5
20260502031258 38 234 0.0 0.0 0.00 0.13 0.13 99 1013.6
20260502030757 39 234 0.0 0.0 0.00 0.13 0.13 99 1013.7
20260502030254 39 233 0.0 0.0 0.00 0.13 0.13 99 1013.5
20260502025751 39 239 0.0 0.0 0.00 0.13 0.13 99 1013.2
20260502025249 39 240 0.0 0.0 0.00 0.13 0.13 99 1013.2
20260502024747 40 233 0.0 0.0 0.00 0.13 0.13 99 1013.6
20260502024244 40 240 0.0 0.0 0.00 0.13 0.13 99 1013.5
20260502023742 40 251 1.0 1.0 0.00 0.13 0.13 99 1013.6
20260502023240 40 252 0.0 1.0 0.00 0.13 0.13 99 1013.5
20260502022737 40 237 0.0 0.0 0.00 0.13 0.13 99 1013.2
20260502022233 40 233 0.0 1.0 0.00 0.13 0.13 99 1013.5
20260502021730 40 237 0.0 0.0 0.00 0.13 0.13 98 1013.2
20260502021228 40 237 0.0 0.0 0.00 0.13 0.13 98 1013.0
20260502020725 40 228 0.0 1.0 0.00 0.13 0.13 98 1013.2
20260502020222 40 237 0.0 0.0 0.00 0.13 0.13 98 1013.1
20260502015720 41 236 0.0 0.0 0.00 0.13 0.13 97 1012.8
20260502015216 41 240 0.0 0.0 0.00 0.13 0.13 97 1012.7
20260502014714 41 239 0.0 0.0 0.07 0.13 0.13 97 1012.8
20260502014211 41 237 0.0 0.0 0.07 0.13 0.13 96 1012.9
20260502013707 41 247 0.0 0.0 0.07 0.13 0.13 96 1012.7
20260502013202 41 241 0.0 0.0 0.00 0.12 0.12 96 1012.6
20260502012659 41 237 0.0 0.0 0.00 0.12 0.12 95 1012.6
20260502012157 41 243 0.0 0.0 0.00 0.12 0.12 95 1012.5
20260502011654 41 243 0.0 0.0 0.00 0.12 0.12 94 1012.3
20260502011149 41 243 0.0 0.0 0.00 0.12 0.12 93 1012.2
20260502010648 41 247 0.0 0.0 0.00 0.12 0.12 92 1012.0
20260502010143 41 270 1.0 1.0 0.00 0.12 0.12 91 1012.0
20260502005641 42 45 1.0 2.0 0.00 0.12 0.12 89 1011.9
20260502005139 43 309 2.0 2.0 0.00 0.12 0.12 84 1012.5
20260502004634 43 11 3.0 3.0 0.00 0.12 0.12 82 1012.3
20260502004131 43 309 2.0 2.0 0.00 0.12 0.12 83 1012.0
20260502003629 43 276 1.0 1.0 0.00 0.12 0.12 83 1012.4
20260502003126 43 263 0.0 1.0 0.00 0.12 0.12 84 1012.2
20260502002622 44 246 0.0 1.0 0.00 0.12 0.12 84 1012.0
20260502002120 44 264 0.0 1.0 0.00 0.12 0.12 83 1012.1
20260502001617 44 258 1.0 1.0 0.00 0.12 0.12 83 1012.2
20260502001114 44 287 1.0 1.0 0.00 0.12 0.12 82 1011.8
20260502000613 44 340 1.0 1.0 0.00 0.12 0.12 84 1011.9
20260502000110 44 271 1.0 1.0 0.00 0.12 0.12 83 1011.8
20260501235605 45 341 2.0 2.0 0.00 0.12 0.12 83 1011.6
20260501235102 45 255 2.0 2.0 0.00 0.12 0.12 83 1011.5
20260501234557 45 259 0.0 1.0 0.00 0.12 0.12 83 1011.4
20260501234055 46 272 0.0 0.0 0.00 0.12 0.12 80 1011.1
20260501233553 46 305 2.0 2.0 0.00 0.12 0.12 78 1011.3
20260501233050 46 277 3.0 3.0 0.00 0.12 0.12 78 1011.3
20260501232546 46 286 1.0 2.0 0.00 0.12 0.12 79 1011.1
20260501232043 46 260 1.0 1.0 0.00 0.12 0.12 80 1011.2
20260501231541 46 292 2.0 2.0 0.00 0.12 0.12 79 1011.2
20260501231039 47 293 2.0 2.0 0.00 0.12 0.12 78 1011.0
20260501230537 47 264 1.0 2.0 0.00 0.12 0.12 78 1011.2
20260501230035 47 288 2.0 2.0 0.00 0.12 0.12 77 1011.2
20260501225532 48 317 3.0 3.0 0.00 0.12 0.12 78 1011.0
20260501225028 47 269 1.0 2.0 0.00 0.12 0.12 78 1010.9
20260501224526 47 280 3.0 3.0 0.00 0.12 0.12 79 1011.1
20260501224023 47 301 3.0 3.0 0.00 0.12 0.12 77 1011.1
20260501223519 47 315 5.0 6.0 0.00 0.12 0.12 79 1011.0
20260501223015 46 291 3.0 3.0 0.00 0.12 0.12 81 1011.0
20260501222512 47 279 2.0 2.0 0.00 0.12 0.12 81 1011.2
20260501222009 46 299 3.0 3.0 0.00 0.12 0.12 81 1011.1
20260501221505 46 259 3.0 3.0 0.00 0.12 0.12 81 1011.3